Wind_Speed
29 27 26 24 25 26 25 24 25 25 24 25 27 28 27 26 23 21 22 21 18 17 16 13 12 10 9 8 8 9 9 9 10 11 12 13 14 15 16 18 20 21 21 21
32 30 27 27 25 24 23 24 25 28 28 27 31 32 32 29 27 26 25 23 21 21 19 16 15 13 11 10 10 10 11 11 11 12 13 14 15 16 17 18 18 19 20 20
33 30 31 31 28 27 28 28 29 30 32 33 34 35 35 32 30 29 29 26 26 24 21 19 17 16 14 13 13 13 13 13 13 14 15 16 17 17 17 17 17 18 19 20
32 33 35 31 30 31 33 33 33 35 36 36 37 37 36 35 36 35 33 31 29 27 25 22 21 20 18 17 16 16 16 16 16 17 18 18 19 19 18 18 18 18 19 20
32 32 32 29 30 32 33 33 35 36 36 36 36 36 36 36 37 37 35 33 31 29 28 25 24 22 21 20 20 19 19 19 19 19 19 20 20 21 21 21 21 22 23 24
32 33 31 30 31 32 32 34 36 36 35 36 36 36 37 36 35 35 35 34 31 31 30 28 27 25 24 23 23 22 22 22 21 21 21 21 22 23 24 25 26 26 27 28
30 31 31 33 33 33 33 35 35 34 34 34 35 36 35 35 35 34 34 34 33 32 32 31 30 29 27 27 26 25 24 24 24 24 24 24 25 25 26 28 29 30 31 32
28 28 30 33 33 33 34 33 32 32 33 33 33 34 34 34 34 34 34 34 34 34 34 33 32 31 30 30 29 27 27 26 27 27 27 27 28 28 30 31 32 33 33 33
28 29 31 33 32 31 31 32 32 33 33 33 33 33 33 33 33 34 34 35 34 34 35 34 34 34 33 31 30 30 30 31 30 29 30 30 30 31 32 33 33 33 33 34
29 30 32 32 31 31 31 31 31 32 32 32 32 32 32 32 32 32 33 33 33 34 34 34 34 34 33 32 32 32 32 33 32 32 32 31 32 32 32 33 33 34 35 36
29 30 31 31 30 31 30 30 30 30 30 30 30 30 30 30 30 30 31 32 32 32 33 33 33 33 33 33 33 34 33 34 33 33 32 31 31 32 32 33 33 34 36 37
28 28 28 28 28 29 29 29 28 28 27 27 27 27 27 27 27 28 29 30 31 32 33 33 33 33 34 33 32 32 33 32 31 29 28 29 30 31 32 33 34 36 37 39
26 25 26 26 26 26 26 25 25 25 25 23 23 23 23 24 25 27 27 27 28 30 31 31 31 32 32 31 31 30 29 28 27 26 26 28 29 30 31 32 34 37 40 42
25 24 24 24 24 23 22 22 21 21 21 20 19 19 20 21 22 24 24 25 25 25 26 26 27 27 27 26 26 26 25 24 24 24 25 27 28 29 31 34 36 39 41 44
22 21 21 20 20 20 19 18 18 18 17 17 16 15 17 18 19 20 20 20 20 21 21 22 22 21 21 21 21 21 21 21 22 24 26 28 30 32 34 37 39 41 43 45
20 19 18 17 17 16 17 17 16 16 15 14 13 12 14 14 15 15 15 13 13 14 14 15 16 16 16 17 17 18 19 21 24 26 28 30 32 35 37 39 41 43 44 46
18 16 15 14 14 13 13 14 13 12 11 10 12 11 11 10 10 10 10 10 10 10 10 11 12 13 14 15 16 19 21 23 25 27 29 32 34 36 38 41 42 44 45 45
14 12 11 11 10 9 9 10 11 10 9 8 8 8 8 7 7 7 7 7 8 9 10 10 11 13 14 16 17 19 21 24 27 29 32 34 36 38 40 41 42 43 43 43
12 11 9 8 8 7 7 7 8 8 8 7 7 6 5 5 4 4 5 6 7 8 8 10 12 14 16 17 19 22 24 27 29 31 33 35 37 38 39 40 40 40 40 40
12 11 9 8 8 7 6 6 6 6 6 5 5 4 4 4 4 4 5 5 7 9 11 12 14 16 18 21 23 25 28 30 31 32 34 35 36 37 37 37 37 37 37 37
13 12 10 9 8 8 7 6 6 6 5 5 5 5 4 4 5 6 7 9 10 12 14 16 17 19 22 24 26 28 30 31 32 33 34 35 35 35 35 34 34 34 34 34
14 13 11 10 9 8 7 7 7 6 6 6 6 6 6 6 7 9 10 12 13 15 17 19 21 23 25 27 28 30 30 31 32 32 33 33 33 32 32 31 32 32 32 32
15 14 13 11 9 8 8 8 8 7 7 7 7 8 9 10 11 12 13 15 16 18 20 23 24 26 27 28 29 30 30 31 31 31 31 30 30 29 29 29 30 30 30 29
14 14 12 11 10 10 10 10 9 9 10 10 10 11 12 13 14 15 17 18 20 22 23 25 26 27 29 29 29 29 29 29 29 29 28 28 28 27 27 27 28 27 27 27
13 12 12 11 10 10 10 11 11 11 11 12 12 13 14 15 17 18 20 21 23 24 26 27 28 28 29 28 28 28 28 27 27 26 26 26 25 25 25 25 25 25 25 25
12 12 12 11 11 12 12 11 12 12 12 13 14 15 17 18 20 21 23 24 25 26 27 27 28 28 27 27 27 27 26 25 24 24 24 23 23 24 23 23 23 23 23 23
11 11 11 11 11 12 12 12 13 14 14 16 17 19 20 21 22 23 24 25 26 26 27 27 27 26 26 25 25 24 23 22 22 22 21 21 21 21 20 20 21 21 21 21
Wind_Direction
230 230 244 252 251 243 236 237 242 249 256 262 267 270 271 271 273 272 275 275 277 284 289 291 293 294 291 282 275 270 265 258 256 255 256 256 257 258 260 261 261 263 263 264
235 232 239 249 252 251 247 247 248 249 254 259 262 266 268 269 269 271 274 272 272 278 279 280 281 281 282 280 277 274 272 270 268 264 263 263 265 265 265 268 270 268 265 267
237 234 237 241 245 248 249 250 253 255 254 252 255 259 262 264 267 271 273 270 272 272 272 273 273 274 274 273 274 275 275 274 273 269 268 268 271 273 273 276 281 276 270 269
241 238 240 242 244 246 251 253 254 255 256 256 257 259 261 262 264 266 268 269 269 269 267 268 269 269 270 270 272 273 274 275 276 273 272 272 272 274 275 278 279 279 276 275
245 246 249 249 247 247 251 254 255 256 257 258 260 261 262 262 262 263 265 265 265 265 264 264 265 267 267 268 271 273 275 276 278 276 275 275 277 276 274 277 279 280 279 280
247 248 248 248 249 251 254 256 257 257 259 260 260 260 261 262 261 260 261 260 259 259 259 261 262 264 264 267 270 272 273 276 277 276 276 276 278 277 274 276 278 281 282 283
247 248 248 249 249 252 255 258 260 262 261 261 260 260 261 261 260 259 258 257 256 256 256 258 260 263 264 266 269 272 273 275 275 274 274 275 276 278 278 279 281 282 282 283
247 247 247 250 252 252 256 260 263 264 265 263 262 260 259 259 258 257 256 255 255 254 256 258 259 260 261 264 267 269 271 273 275 274 273 275 276 278 280 281 281 283 284 284
245 247 251 255 256 257 259 262 264 266 266 265 263 261 260 257 255 254 255 254 254 253 254 256 257 257 259 262 265 268 270 271 274 275 274 275 277 278 280 282 283 284 285 286
249 252 254 257 260 261 263 264 265 266 266 266 265 262 259 257 254 253 253 252 253 253 253 253 254 256 258 260 264 267 268 269 270 273 273 274 274 276 279 281 284 287 290 291
251 252 254 257 260 263 264 265 266 266 265 265 265 263 261 257 254 251 250 251 251 250 251 252 253 255 257 260 263 266 269 269 268 269 270 272 275 279 282 285 287 289 291 293
252 255 257 260 262 264 266 267 267 266 265 265 264 263 260 256 253 250 249 250 249 249 251 251 252 254 256 259 261 263 267 269 269 269 271 276 281 284 286 289 291 293 295 296
254 257 261 264 266 267 268 267 266 265 264 263 262 260 257 252 249 247 246 247 248 248 249 250 250 252 254 257 259 261 264 266 268 271 277 283 287 290 292 294 295 296 297 298
257 262 265 267 267 266 265 265 264 264 263 260 257 254 249 245 245 244 242 243 244 244 246 248 249 252 253 256 259 260 262 268 274 279 284 287 290 293 295 297 298 300 300 301
258 261 264 266 266 262 261 261 260 259 258 255 253 250 246 243 240 237 234 233 234 238 244 246 247 251 255 259 262 264 269 275 280 287 292 294 296 298 299 300 301 302 302 302
257 259 262 264 264 258 254 254 255 255 255 253 243 238 236 229 225 224 223 220 227 235 240 244 247 252 259 264 267 271 278 286 292 295 297 298 300 302 303 304 304 305 304 304
253 254 256 256 257 252 249 246 240 239 236 231 221 217 212 206 211 214 215 216 225 235 242 249 255 262 267 273 280 285 290 294 297 300 302 303 305 306 306 307 307 307 308 308
245 244 244 243 236 231 234 229 224 219 213 203 195 192 192 191 196 206 213 219 232 244 251 257 264 271 279 285 289 293 298 301 303 304 306 307 308 308 309 309 309 310 310 309
230 230 228 227 220 213 213 207 199 199 198 193 189 189 194 194 203 225 236 242 252 264 275 284 291 294 295 298 301 303 305 306 307 308 309 310 310 310 311 311 312 312 313 313
221 217 217 216 214 208 203 191 186 192 195 193 194 192 191 198 216 229 245 261 275 286 291 294 297 299 301 304 306 307 308 309 310 311 311 312 312 312 313 314 315 316 317 317
216 212 210 204 200 195 196 191 191 198 200 203 206 211 224 239 253 265 277 283 288 291 293 297 300 303 306 308 309 310 311 312 312 312 313 313 314 315 316 317 318 319 320 321
207 205 203 202 199 197 197 200 204 213 220 224 232 245 258 267 275 280 284 288 292 295 299 302 304 306 308 310 311 312 312 312 312 313 314 315 316 317 318 320 321 322 323 323
205 203 205 207 210 212 219 219 220 230 239 245 253 263 271 276 281 285 288 292 295 299 302 304 306 308 309 310 311 312 312 312 313 314 315 315 316 318 319 321 323 324 325 326
210 210 209 210 216 221 224 227 232 240 249 254 259 267 275 281 285 289 292 295 298 301 304 306 308 309 310 311 310 311 312 313 313 314 315 316 316 317 319 321 324 326 327 329
218 215 215 218 225 229 232 235 241 250 256 261 269 277 283 288 291 293 295 298 301 304 305 307 308 309 310 310 309 310 312 313 313 314 315 316 317 318 320 321 324 326 328 330
218 219 221 227 236 238 239 243 249 256 264 273 279 284 288 291 294 296 298 301 303 304 304 306 307 308 309 308 308 310 311 311 311 312 314 316 318 319 321 322 324 327 328 330
224 231 235 239 244 246 250 255 261 268 275 281 285 288 291 294 296 298 300 302 303 304 305 306 307 307 306 306 306 307 308 308 310 313 316 318 320 321 323 324 327 330 331 333
Height
5817 5820 5821 5821 5822 5823 5825 5827 5829 5831 5830 5829 5827 5825 5824 5823 5823 5826 5827 5827 5827 5827 5827 5827 5827 5827 5827 5826 5826 5826 5826 5826 5827 5828 5829 5830 5831 5831 5832 5832 5833 5833 5834 5834
5808 5812 5814 5815 5816 5817 5819 5821 5823 5824 5825 5824 5821 5819 5819 5819 5819 5820 5822 5822 5823 5824 5824 5824 5825 5825 5825 5825 5825 5825 5825 5825 5826 5826 5826 5827 5827 5827 5828 5828 5828 5828 5828 5829
5801 5805 5806 5808 5811 5811 5812 5814 5816 5816 5817 5815 5814 5813 5812 5813 5814 5813 5815 5816 5818 5819 5819 5820 5821 5821 5822 5822 5822 5822 5822 5823 5823 5823 5823 5823 5823 5823 5823 5823 5823 5823 5823 5823
5793 5797 5797 5803 5803 5804 5804 5805 5806 5806 5806 5806 5806 5806 5806 5806 5807 5807 5809 5811 5812 5813 5815 5816 5817 5817 5818 5818 5819 5819 5819 5818 5819 5818 5818 5818 5818 5819 5819 5819 5819 5818 5818 5818
5786 5788 5790 5794 5794 5793 5795 5796 5796 5795 5796 5797 5797 5799 5798 5798 5799 5801 5802 5804 5805 5807 5809 5810 5811 5812 5813 5813 5814 5814 5814 5814 5813 5813 5813 5813 5813 5813 5813 5814 5814 5813 5813 5813
5778 5780 5782 5785 5783 5784 5787 5786 5785 5787 5788 5788 5789 5790 5790 5791 5792 5793 5795 5796 5798 5800 5802 5804 5805 5806 5807 5808 5808 5808 5809 5808 5808 5808 5808 5808 5808 5808 5808 5808 5807 5807 5807 5806
5769 5770 5773 5773 5773 5776 5779 5776 5776 5778 5778 5779 5780 5781 5782 5782 5783 5784 5786 5788 5791 5793 5794 5796 5798 5800 5801 5801 5802 5803 5803 5802 5802 5802 5802 5802 5802 5801 5801 5801 5800 5800 5799 5798
5761 5763 5766 5763 5765 5767 5767 5767 5768 5768 5769 5769 5770 5771 5772 5773 5774 5776 5777 5780 5782 5785 5787 5789 5791 5793 5794 5795 5796 5797 5797 5797 5796 5796 5796 5795 5795 5795 5794 5793 5792 5791 5790 5789
5753 5756 5755 5755 5757 5758 5759 5759 5759 5760 5760 5760 5760 5761 5762 5764 5766 5767 5769 5771 5774 5776 5779 5781 5783 5785 5786 5787 5788 5789 5790 5789 5789 5789 5789 5788 5788 5788 5786 5785 5784 5783 5781 5780
5746 5747 5747 5748 5749 5750 5751 5751 5751 5751 5751 5750 5751 5752 5753 5754 5756 5759 5760 5762 5764 5768 5770 5773 5775 5777 5779 5780 5781 5781 5782 5782 5782 5782 5781 5781 5780 5779 5778 5777 5775 5774 5772 5770
5738 5739 5740 5740 5741 5742 5742 5742 5742 5742 5742 5742 5742 5743 5744 5746 5748 5750 5753 5754 5757 5759 5762 5765 5767 5769 5771 5772 5773 5774 5774 5774 5774 5773 5773 5772 5772 5771 5770 5768 5766 5765 5763 5761
5731 5732 5733 5733 5734 5734 5734 5734 5734 5734 5734 5734 5735 5735 5736 5738 5740 5742 5745 5747 5750 5752 5754 5757 5759 5761 5763 5764 5765 5766 5767 5767 5766 5766 5765 5765 5764 5763 5761 5760 5758 5756 5753 5751
5724 5725 5725 5726 5726 5726 5726 5726 5726 5726 5727 5727 5728 5728 5730 5731 5733 5735 5737 5740 5743 5745 5747 5749 5752 5753 5755 5756 5757 5758 5759 5759 5759 5759 5759 5758 5757 5755 5753 5751 5749 5746 5743 5739
5718 5719 5719 5720 5719 5719 5719 5719 5720 5720 5720 5721 5721 5723 5724 5725 5727 5729 5732 5734 5737 5739 5741 5743 5745 5747 5748 5750 5751 5752 5752 5752 5752 5752 5752 5751 5749 5747 5745 5743 5740 5736 5732 5727
5712 5713 5713 5714 5713 5714 5714 5714 5715 5715 5716 5716 5717 5718 5720 5721 5723 5725 5727 5729 5732 5734 5736 5738 5740 5741 5743 5744 5745 5746 5747 5747 5746 5745 5744 5743 5740 5738 5735 5732 5729 5725 5721 5716
5707 5708 5708 5709 5708 5709 5709 5710 5711 5711 5712 5713 5714 5715 5716 5718 5720 5722 5724 5726 5729 5731 5733 5735 5736 5738 5739 5740 5740 5741 5741 5740 5739 5738 5736 5734 5731 5728 5724 5721 5717 5713 5708 5702
5703 5704 5704 5704 5705 5705 5706 5706 5707 5708 5710 5711 5712 5713 5714 5716 5718 5720 5722 5724 5726 5728 5730 5732 5733 5734 5734 5735 5735 5735 5734 5733 5732 5730 5727 5725 5721 5718 5714 5709 5705 5700 5695 5689
5699 5700 5700 5702 5702 5703 5703 5704 5705 5707 5708 5709 5711 5712 5713 5715 5717 5718 5720 5722 5724 5726 5727 5728 5729 5730 5730 5730 5729 5729 5727 5726 5724 5721 5718 5715 5711 5707 5703 5698 5693 5688 5682 5676
5695 5696 5698 5699 5700 5701 5702 5703 5704 5706 5707 5709 5710 5712 5713 5714 5716 5717 5719 5721 5722 5723 5724 5725 5725 5725 5725 5724 5723 5722 5720 5718 5716 5713 5709 5705 5702 5697 5692 5687 5682 5676 5671 5665
5693 5694 5696 5697 5699 5700 5701 5702 5704 5705 5707 5708 5710 5711 5713 5714 5715 5716 5718 5719 5720 5720 5721 5721 5721 5720 5719 5718 5717 5715 5713 5710 5707 5704 5700 5696 5692 5687 5682 5677 5671 5666 5660 5655
5691 5692 5694 5696 5698 5699 5701 5702 5704 5705 5707 5708 5709 5710 5712 5713 5714 5715 5715 5716 5717 5717 5717 5716 5716 5715 5713 5711 5709 5707 5704 5701 5698 5694 5690 5686 5682 5677 5672 5667 5662 5657 5651 5646
5689 5691 5693 5695 5697 5698 5700 5701 5703 5704 5706 5707 5708 5709 5710 5711 5712 5712 5713 5713 5713 5712 5712 5711 5710 5708 5706 5704 5701 5698 5695 5692 5689 5685 5681 5677 5672 5668 5663 5659 5654 5649 5644 5639
5687 5689 5691 5693 5695 5697 5699 5700 5702 5703 5704 5705 5706 5707 5708 5708 5709 5709 5709 5709 5708 5707 5706 5704 5703 5700 5698 5696 5693 5690 5687 5683 5680 5676 5672 5668 5664 5660 5656 5652 5647 5642 5637 5632
5686 5688 5690 5692 5693 5695 5697 5698 5700 5701 5702 5703 5703 5704 5705 5705 5705 5704 5704 5703 5702 5701 5699 5697 5695 5693 5690 5687 5685 5681 5678 5675 5672 5668 5665 5661 5657 5653 5649 5645 5641 5636 5632 5627
5684 5686 5688 5689 5691 5693 5694 5696 5697 5698 5699 5699 5700 5700 5700 5700 5700 5699 5698 5697 5695 5693 5692 5690 5687 5685 5682 5679 5677 5674 5671 5667 5664 5661 5658 5654 5651 5647 5643 5639 5635 5631 5627 5622
5682 5684 5686 5687 5689 5690 5691 5693 5693 5694 5695 5695 5695 5695 5695 5694 5693 5692 5691 5689 5688 5686 5684 5682 5679 5677 5674 5672 5669 5666 5663 5660 5657 5654 5651 5648 5645 5641 5638 5634 5630 5626 5622 5618
5681 5682 5683 5685 5686 5687 5688 5689 5689 5690 5690 5690 5690 5689 5688 5687 5686 5685 5684 5682 5680 5678 5676 5674 5672 5669 5667 5664 5662 5659 5657 5654 5651 5648 5646 5642 5639 5636 5633 5630 5626 5622 5619 5615